,,Stat5,,Stat1,,Stat2,,Stat3,,Stat4,,Wind1,,Wind1,
time,status,PA1M_AVG,status,PR1M_SUM,status,RH1M_AVG,status,SR1M_AVG,status,TA1M_AVG,status,W1dAve1m,status,W1sAve1m,
2003-04-09, 00:00:00,VALID,918.816,VALID,0,VALID,99.7803,VALID,-0.0339617,VALID,19.249,VALID,128,VALID,1.39268,
2003-04-09, 00:01:00,VALID,918.78,VALID,0,VALID,99.7828,VALID,-0.0339617,VALID,19.2753,VALID,141,VALID,1.09831,
2003-04-09, 00:02:00,VALID,918.754,VALID,0,VALID,99.7854,VALID,-0.0509425,VALID,19.2912,VALID,162,VALID,0.608226,
2003-04-09, 00:03:00,VALID,918.77,VALID,0,VALID,99.8019,VALID,-0.0509425,VALID,19.3076,VALID,148,VALID,0.187922,
2003-04-09, 00:04:00,VALID,918.757,VALID,0,VALID,99.8095,VALID,-0.0509425,VALID,19.3201,VALID,132,VALID,0.245634,
2003-04-09, 00:05:00,VALID,918.781,VALID,0,VALID,99.8108,VALID,-0.0849042,VALID,19.3434,VALID,138,VALID,0,
2003-04-09, 00:06:00,VALID,918.784,VALID,0,VALID,99.807,VALID,-0.101885,VALID,19.3499,VALID,70,VALID,0.408784,
2003-04-09, 00:07:00,VALID,918.809,VALID,0,VALID,99.807,VALID,-0.0509425,VALID,19.3591,VALID,54,VALID,0.90648,
2003-04-09, 00:08:00,VALID,918.813,VALID,0,VALID,99.7904,VALID,0,VALID,19.3367,VALID,37,VALID,0.955966,
2003-04-09, 00:09:00,VALID,918.845,VALID,0,VALID,99.7765,VALID,-0.0509425,VALID,19.3143,VALID,34,VALID,0.923394,
2003-04-09, 00:10:00,VALID,918.842,VALID,0,VALID,99.7523,VALID,-0.0169808,VALID,19.2882,VALID,42,VALID,1.15039,
2003-04-09, 00:11:00,VALID,918.869,VALID,0,VALID,99.7447,VALID,-0.0169808,VALID,19.2584,VALID,53,VALID,1.21899,
2003-04-09, 00:12:00,VALID,918.876,VALID,0,VALID,99.7281,VALID,-0.0169808,VALID,19.2298,VALID,53,VALID,1.16195,
2003-04-09, 00:13:00,VALID,918.893,VALID,0,VALID,99.7141,VALID,-0.0339617,VALID,19.2074,VALID,52,VALID,1.19072,
2003-04-09, 00:14:00,VALID,918.887,VALID,0,VALID,99.7129,VALID,-0.0849042,VALID,19.2017,VALID,46,VALID,1.10582,
2003-04-09, 00:15:00,VALID,918.904,VALID,0,VALID,99.7078,VALID,-0.0509425,VALID,19.1851,VALID,43,VALID,1.09961,
2003-04-09, 00:16:00,VALID,918.889,VALID,0,VALID,99.7205,VALID,-0.0339617,VALID,19.1582,VALID,44,VALID,1.21072,
2003-04-09, 00:17:00,VALID,918.875,VALID,0,VALID,99.7205,VALID,-0.0509425,VALID,19.1493,VALID,50,VALID,0.91572,
2003-04-09, 00:18:00,VALID,918.893,VALID,0,VALID,99.7192,VALID,-0.0849042,VALID,19.1363,VALID,37,VALID,1.11275,
2003-04-09, 00:19:00,VALID,918.878,VALID,0,VALID,99.7154,VALID,-0.0509425,VALID,19.1366,VALID,38,VALID,1.11903,
2003-04-09, 00:20:00,VALID,918.87,VALID,0,VALID,99.7192,VALID,-0.0509425,VALID,19.1333,VALID,62,VALID,0.946259,
2003-04-09, 00:21:00,VALID,918.883,VALID,0,VALID,99.7129,VALID,-0.0339617,VALID,19.1077,VALID,57,VALID,1.20703,
2003-04-09, 00:22:00,VALID,918.892,VALID,0,VALID,99.6989,VALID,-0.0679233,VALID,19.0819,VALID,49,VALID,1.31315,
2003-04-09, 00:23:00,VALID,918.889,VALID,0,VALID,99.6684,VALID,-0.0849042,VALID,19.0685,VALID,34,VALID,1.00284,
2003-04-09, 00:24:00,VALID,918.872,VALID,0,VALID,99.662,VALID,-0.0509425,VALID,19.065,VALID,29,VALID,0.722973,
2003-04-09, 00:25:00,VALID,918.88,VALID,0,VALID,99.6836,VALID,-0.0339617,VALID,19.0879,VALID,27,VALID,0.545956,
2003-04-09, 00:26:00,VALID,918.884,VALID,0,VALID,99.7002,VALID,-0.0339617,VALID,19.1107,VALID,56,VALID,0.487926,
2003-04-09, 00:27:00,VALID,918.871,VALID,0,VALID,99.7052,VALID,-0.0169808,VALID,19.1162,VALID,80,VALID,0.758898,
2003-04-09, 00:28:00,VALID,918.877,VALID,0,VALID,99.7307,VALID,-0.0169808,VALID,19.1363,VALID,99,VALID,0.893663,
2003-04-09, 00:29:00,VALID,918.858,VALID,0,VALID,99.7447,VALID,-0.0339617,VALID,19.1851,VALID,100,VALID,0.361979,
2003-04-09, 00:30:00,VALID,918.864,VALID,0,VALID,99.779,VALID,-0.0509425,VALID,19.2164,VALID,122,VALID,1.53378,
2003-04-09, 00:31:00,VALID,918.853,VALID,0,VALID,99.7955,VALID,-0.0679233,VALID,19.2691,VALID,123,VALID,0.931985,
2003-04-09, 00:32:00,VALID,918.834,VALID,0,VALID,99.7955,VALID,-0.0849042,VALID,19.2977,VALID,138,VALID,1.02012,
2003-04-09, 00:33:00,VALID,918.807,VALID,0,VALID,99.7955,VALID,-0.0339617,VALID,19.3203,VALID,117,VALID,0.916884,
2003-04-09, 00:34:00,VALID,918.791,VALID,0,VALID,99.7803,VALID,-0.0339617,VALID,19.3335,VALID,133,VALID,0.548828,
2003-04-09, 00:35:00,VALID,918.772,VALID,0,VALID,99.7854,VALID,-0.0509425,VALID,19.3429,VALID,112,VALID,0.570786,
2003-04-09, 00:36:00,VALID,918.751,VALID,0,VALID,99.7917,VALID,-0.0339617,VALID,19.3591,VALID,74,VALID,0.35114,
2003-04-09, 00:37:00,VALID,918.737,VALID,0,VALID,99.7777,VALID,-0.0339617,VALID,19.3919,VALID,75,VALID,0.558594,
2003-04-09, 00:38:00,VALID,918.72,VALID,0,VALID,99.7714,VALID,-0.0339617,VALID,19.3951,VALID,92,VALID,0.643939,
2003-04-09, 00:39:00,VALID,918.706,VALID,0,VALID,99.779,VALID,-0.0509425,VALID,19.3984,VALID,114,VALID,0.450304,
2003-04-09, 00:40:00,VALID,918.679,VALID,0,VALID,99.7701,VALID,-0.0679233,VALID,19.4081,VALID,129,VALID,0.605035,
2003-04-09, 00:41:00,VALID,918.647,VALID,0,VALID,99.7701,VALID,-0.0849042,VALID,19.424,VALID,96,VALID,0.142519,
2003-04-09, 00:42:00,VALID,918.615,VALID,0,VALID,99.7688,VALID,-0.0679233,VALID,19.4401,VALID,84,VALID,0.227618,
2003-04-09, 00:43:00,VALID,918.585,VALID,0,VALID,99.7637,VALID,-0.0849042,VALID,19.4533,VALID,135,VALID,0.584559,
2003-04-09, 00:44:00,VALID,918.56,VALID,0,VALID,99.7561,VALID,-0.0169808,VALID,19.4461,VALID,172,VALID,0.491477,
2003-04-09, 00:45:00,VALID,918.531,VALID,0,VALID,99.7625,VALID,-0.0849042,VALID,19.4657,VALID,179,VALID,0.597656,
2003-04-09, 00:46:00,VALID,918.542,VALID,0,VALID,99.7612,VALID,-0.0849042,VALID,19.4986,VALID,131,VALID,0.16276,
2003-04-09, 00:47:00,VALID,918.526,VALID,0,VALID,99.7701,VALID,-0.0509425,VALID,19.5145,VALID,124,VALID,0.211884,
2003-04-09, 00:48:00,VALID,918.534,VALID,0,VALID,99.7625,VALID,-0.0509425,VALID,19.5147,VALID,123,VALID,0.0301943,
2003-04-09, 00:49:00,VALID,918.548,VALID,0,VALID,99.7485,VALID,-0.0679233,VALID,19.518,VALID,123,VALID,0.167279,
2003-04-09, 00:50:00,VALID,918.557,VALID,0,VALID,99.7472,VALID,-0.152827,VALID,19.515,VALID,130,VALID,0.618845,
2003-04-09, 00:51:00,VALID,918.564,VALID,0,VALID,99.7408,VALID,-0.0509425,VALID,19.5011,VALID,137,VALID,0.0820313,
2003-04-09, 00:52:00,VALID,918.551,VALID,0,VALID,99.7383,VALID,-0.0679233,VALID,19.5075,VALID,83,VALID,0.295573,
2003-04-09, 00:53:00,VALID,918.494,VALID,0,VALID,99.7307,VALID,-0.0339617,VALID,19.505,VALID,156,VALID,0.524148,
2003-04-09, 00:54:00,VALID,918.48,VALID,0,VALID,99.7116,VALID,-0.0679233,VALID,19.4986,VALID,152,VALID,0.777449,
2003-04-09, 00:55:00,VALID,918.444,VALID,0,VALID,99.7129,VALID,-0.101885,VALID,19.4854,VALID,170,VALID,0.985754,
2003-04-09, 00:56:00,VALID,918.419,VALID,0,VALID,99.7103,VALID,-0.0849042,VALID,19.4819,VALID,155,VALID,0.933712,
2003-04-09, 00:57:00,VALID,918.42,VALID,0,VALID,99.7078,VALID,-0.0169808,VALID,19.4754,VALID,140,VALID,1.13672,
2003-04-09, 00:58:00,VALID,918.425,VALID,0.2,VALID,99.6989,VALID,-0.0679233,VALID,19.472,VALID,150,VALID,1.24501,
2003-04-09, 00:59:00,VALID,918.435,VALID,0,VALID,99.6989,VALID,-0.101885,VALID,19.4926,VALID,143,VALID,0.946259,
2003-04-09, 01:00:00,VALID,918.441,VALID,0,VALID,99.6989,VALID,-0.0679233,VALID,19.4819,VALID,140,VALID,1.10832,
2003-04-09, 01:01:00,VALID,918.434,VALID,0,VALID,99.704,VALID,-0.0509425,VALID,19.4754,VALID,131,VALID,0.948759,
2003-04-09, 01:02:00,VALID,918.44,VALID,0,VALID,99.7103,VALID,-0.0169808,VALID,19.4789,VALID,146,VALID,1.21283,
2003-04-09, 01:03:00,VALID,918.416,VALID,0,VALID,99.6989,VALID,-0.0679233,VALID,19.4886,VALID,148,VALID,0.847656,
2003-04-09, 01:04:00,VALID,918.415,VALID,0,VALID,99.7014,VALID,-0.0339617,VALID,19.4983,VALID,134,VALID,0.728299,
2003-04-09, 01:05:00,VALID,918.381,VALID,0,VALID,99.6976,VALID,-0.0679233,VALID,19.5013,VALID,150,VALID,1.35275,
2003-04-09, 01:06:00,VALID,918.341,VALID,0,VALID,99.6862,VALID,-0.0339617,VALID,19.4822,VALID,147,VALID,1.42736,
2003-04-09, 01:07:00,VALID,918.317,VALID,0,VALID,99.6862,VALID,-0.0169808,VALID,19.4918,VALID,147,VALID,1.50483,
2003-04-09, 01:08:00,VALID,918.278,VALID,0.2,VALID,99.6874,VALID,-0.101885,VALID,19.4886,VALID,140,VALID,1.42803,
2003-04-09, 01:09:00,VALID,918.268,VALID,0,VALID,99.6785,VALID,-0.0679233,VALID,19.4916,VALID,147,VALID,1.38976,
2003-04-09, 01:10:00,VALID,918.248,VALID,0,VALID,99.6735,VALID,-0.0339617,VALID,19.508,VALID,154,VALID,1.48568,
2003-04-09, 01:11:00,VALID,918.253,VALID,0,VALID,99.6684,VALID,-0.0509425,VALID,19.4886,VALID,135,VALID,1.22869,
2003-04-09, 01:12:00,VALID,918.234,VALID,0,VALID,99.6633,VALID,-0.0679233,VALID,19.4986,VALID,159,VALID,1.3503,
2003-04-09, 01:13:00,VALID,918.231,VALID,0,VALID,99.6506,VALID,-0.0849042,VALID,19.5112,VALID,126,VALID,1.49311,
2003-04-09, 01:14:00,VALID,918.239,VALID,0,VALID,99.6493,VALID,-0.0339617,VALID,19.5175,VALID,159,VALID,0.779593,
2003-04-09, 01:15:00,VALID,918.227,VALID,0,VALID,99.6442,VALID,-0.0339617,VALID,19.5107,VALID,178,VALID,0.499132,
2003-04-09, 01:16:00,VALID,918.212,VALID,0.2,VALID,99.6315,VALID,-0.0339617,VALID,19.514,VALID,155,VALID,0.525608,
2003-04-09, 01:17:00,VALID,918.198,VALID,0,VALID,99.6366,VALID,-0.0849042,VALID,19.5073,VALID,184,VALID,0.606297,
2003-04-09, 01:18:00,VALID,918.197,VALID,0,VALID,99.6277,VALID,-0.0509425,VALID,19.5368,VALID,158,VALID,0.669552,
2003-04-09, 01:19:00,VALID,918.168,VALID,0,VALID,99.6251,VALID,-0.0169808,VALID,19.5137,VALID,154,VALID,0.503447,
2003-04-09, 01:20:00,VALID,918.178,VALID,0,VALID,99.6264,VALID,-0.0169808,VALID,19.5073,VALID,160,VALID,0.559422,
2003-04-09, 01:21:00,VALID,918.168,VALID,0,VALID,99.6162,VALID,-0.0339617,VALID,19.5145,VALID,159,VALID,0.749566,
2003-04-09, 01:22:00,VALID,918.157,VALID,0,VALID,99.5921,VALID,-0.0169808,VALID,19.4978,VALID,165,VALID,0.477431,
2003-04-09, 01:23:00,VALID,918.159,VALID,0.2,VALID,99.6073,VALID,-0.0849042,VALID,19.499,VALID,174,VALID,0.14678,
2003-04-09, 01:24:00,VALID,918.149,VALID,0,VALID,99.6073,VALID,-0.101885,VALID,19.4859,VALID,124,VALID,0.585304,
2003-04-09, 01:25:00,VALID,918.133,VALID,0,VALID,99.601,VALID,-0.101885,VALID,19.4866,VALID,112,VALID,0.977252,
2003-04-09, 01:26:00,VALID,918.104,VALID,0,VALID,99.5984,VALID,-0.135847,VALID,19.4635,VALID,144,VALID,0.613873,
2003-04-09, 01:27:00,VALID,918.076,VALID,0,VALID,99.601,VALID,-0.118866,VALID,19.4672,VALID,147,VALID,1.02127,
2003-04-09, 01:28:00,VALID,918.027,VALID,0.2,VALID,99.601,VALID,-0.118866,VALID,19.4545,VALID,149,VALID,1.23785,
2003-04-09, 01:29:00,VALID,917.983,VALID,0,VALID,99.6022,VALID,-0.101885,VALID,19.4347,VALID,145,VALID,0.97822,
2003-04-09, 01:30:00,VALID,917.94,VALID,0,VALID,99.6061,VALID,-0.152827,VALID,19.4414,VALID,154,VALID,1.89295,
2003-04-09, 01:31:00,VALID,917.91,VALID,0,VALID,99.5997,VALID,-0.118866,VALID,19.4212,VALID,150,VALID,0.931526,
2003-04-09, 01:32:00,VALID,917.883,VALID,0,VALID,99.6124,VALID,-0.118866,VALID,19.4446,VALID,146,VALID,0.858191,
2003-04-09, 01:33:00,VALID,917.855,VALID,0,VALID,99.6035,VALID,-0.135847,VALID,19.4314,VALID,146,VALID,1.22027,
2003-04-09, 01:34:00,VALID,917.836,VALID,0,VALID,99.5984,VALID,-0.135847,VALID,19.4157,VALID,122,VALID,1.13997,
2003-04-09, 01:35:00,VALID,917.824,VALID,0.2,VALID,99.6061,VALID,-0.135847,VALID,19.4085,VALID,137,VALID,0.897964,
2003-04-09, 01:36:00,VALID,917.798,VALID,0,VALID,99.6061,VALID,-0.101885,VALID,19.4088,VALID,143,VALID,1.58383,
2003-04-09, 01:37:00,VALID,917.786,VALID,0,VALID,99.601,VALID,-0.118866,VALID,19.3954,VALID,146,VALID,1.55308,
2003-04-09, 01:38:00,VALID,917.769,VALID,0,VALID,99.601,VALID,-0.0339617,VALID,19.3951,VALID,147,VALID,1.6617,
2003-04-09, 01:39:00,VALID,917.752,VALID,0,VALID,99.5997,VALID,-0.0339617,VALID,19.4051,VALID,153,VALID,1.33464,
2003-04-09, 01:40:00,VALID,917.736,VALID,0,VALID,99.6073,VALID,-0.0169808,VALID,19.3753,VALID,157,VALID,1.04188,
2003-04-09, 01:41:00,VALID,917.723,VALID,0.2,VALID,99.6035,VALID,0,VALID,19.3785,VALID,154,VALID,0.96733,
2003-04-09, 01:42:00,VALID,917.701,VALID,0,VALID,99.6162,VALID,0.0169808,VALID,19.3718,VALID,130,VALID,0.586149,
2003-04-09, 01:43:00,VALID,917.68,VALID,0,VALID,99.62,VALID,0.0169808,VALID,19.3755,VALID,146,VALID,1.16245,
2003-04-09, 01:44:00,VALID,917.658,VALID,0,VALID,99.6137,VALID,0,VALID,19.3658,VALID,149,VALID,1.55232,
2003-04-09, 01:45:00,VALID,917.63,VALID,0,VALID,99.601,VALID,0,VALID,19.369,VALID,152,VALID,1.25738,
2003-04-09, 01:46:00,VALID,917.603,VALID,0,VALID,99.6264,VALID,0.0339617,VALID,19.3656,VALID,96,VALID,0.722439,
2003-04-09, 01:47:00,VALID,917.569,VALID,0.2,VALID,99.615,VALID,0.0339617,VALID,19.3626,VALID,147,VALID,1.14512,
2003-04-09, 01:48:00,VALID,917.529,VALID,0,VALID,99.6137,VALID,0,VALID,19.3429,VALID,157,VALID,1.36001,
2003-04-09, 01:49:00,VALID,917.526,VALID,0,VALID,99.6175,VALID,0,VALID,19.3496,VALID,155,VALID,1.24012,
2003-04-09, 01:50:00,VALID,917.494,VALID,0,VALID,99.6073,VALID,0.0339617,VALID,19.3327,VALID,146,VALID,1.28314,
2003-04-09, 01:51:00,VALID,917.484,VALID,0,VALID,99.6035,VALID,0.0169808,VALID,19.3332,VALID,151,VALID,1.3444,
2003-04-09, 01:52:00,VALID,917.466,VALID,0,VALID,99.6111,VALID,0.0169808,VALID,19.3268,VALID,145,VALID,0.639757,
2003-04-09, 01:53:00,VALID,917.441,VALID,0,VALID,99.6137,VALID,-0.0509425,VALID,19.3206,VALID,128,VALID,0.787405,
2003-04-09, 01:54:00,VALID,917.414,VALID,0,VALID,99.6213,VALID,-0.0849042,VALID,19.3151,VALID,101,VALID,0.619088,
2003-04-09, 01:55:00,VALID,917.404,VALID,0,VALID,99.6264,VALID,-0.101885,VALID,19.332,VALID,125,VALID,1.00161,
2003-04-09, 01:56:00,VALID,917.37,VALID,0,VALID,99.6213,VALID,-0.0849042,VALID,19.319,VALID,114,VALID,0.507339,
2003-04-09, 01:57:00,VALID,917.363,VALID,0,VALID,99.6061,VALID,-0.101885,VALID,19.3121,VALID,118,VALID,1.23915,
2003-04-09, 01:58:00,VALID,917.33,VALID,0.2,VALID,99.5908,VALID,-0.0679233,VALID,19.3126,VALID,119,VALID,1.40907,
2003-04-09, 01:59:00,VALID,917.296,VALID,0,VALID,99.5819,VALID,-0.0679233,VALID,19.3056,VALID,101,VALID,1.04522,
2003-04-09, 02:00:00,VALID,917.273,VALID,0,VALID,99.5654,VALID,-0.0679233,VALID,19.3059,VALID,129,VALID,0.793285,
2003-04-09, 02:01:00,VALID,917.234,VALID,0,VALID,99.5463,VALID,-0.0679233,VALID,19.2957,VALID,121,VALID,0.949219,
2003-04-09, 02:02:00,VALID,917.177,VALID,0.2,VALID,99.5336,VALID,-0.0849042,VALID,19.3061,VALID,147,VALID,1.37453,
2003-04-09, 02:03:00,VALID,917.126,VALID,0,VALID,99.5005,VALID,-0.101885,VALID,19.2927,VALID,127,VALID,1.12001,
2003-04-09, 02:04:00,VALID,917.068,VALID,0,VALID,99.4814,VALID,-0.0679233,VALID,19.2991,VALID,125,VALID,1.18077,
2003-04-09, 02:05:00,VALID,916.961,VALID,0.2,VALID,99.4433,VALID,-0.101885,VALID,19.2869,VALID,132,VALID,1.16004,
2003-04-09, 02:06:00,VALID,916.961,VALID,0.2,VALID,99.4255,VALID,-0.101885,VALID,19.2902,VALID,133,VALID,1.30849,
2003-04-09, 02:07:00,VALID,916.924,VALID,0,VALID,99.409,VALID,-0.101885,VALID,19.277,VALID,146,VALID,2.10478,
2003-04-09, 02:08:00,VALID,916.872,VALID,0,VALID,99.4331,VALID,-0.0339617,VALID,19.2693,VALID,148,VALID,1.44555,
2003-04-09, 02:09:00,VALID,916.843,VALID,0,VALID,99.4547,VALID,0,VALID,19.2696,VALID,144,VALID,1.82639,
2003-04-09, 02:10:00,VALID,916.796,VALID,0.2,VALID,99.4331,VALID,-0.0509425,VALID,19.2472,VALID,145,VALID,1.88694,
2003-04-09, 02:11:00,VALID,916.771,VALID,0,VALID,99.4382,VALID,-0.0339617,VALID,19.2171,VALID,151,VALID,1.70265,
2003-04-09, 02:12:00,VALID,916.749,VALID,0,VALID,99.4547,VALID,-0.0339617,VALID,19.2109,VALID,146,VALID,1.22698,
2003-04-09, 02:13:00,VALID,916.73,VALID,0,VALID,99.4649,VALID,0,VALID,19.2077,VALID,148,VALID,1.44233,
2003-04-09, 02:14:00,VALID,916.728,VALID,0,VALID,99.4687,VALID,-0.0169808,VALID,19.1853,VALID,145,VALID,0.787169,
2003-04-09, 02:15:00,VALID,916.714,VALID,0,VALID,99.5043,VALID,-0.0169808,VALID,19.1885,VALID,143,VALID,0.703993,
2003-04-09, 02:16:00,VALID,916.709,VALID,0,VALID,99.4929,VALID,-0.0339617,VALID,19.1851,VALID,136,VALID,1.13173,
2003-04-09, 02:17:00,VALID,916.682,VALID,0,VALID,99.4878,VALID,-0.0339617,VALID,19.1754,VALID,145,VALID,1.20478,
2003-04-09, 02:18:00,VALID,916.673,VALID,0,VALID,99.5018,VALID,0,VALID,19.1597,VALID,152,VALID,1.11803,
2003-04-09, 02:19:00,VALID,916.655,VALID,0,VALID,99.5209,VALID,-0.0169808,VALID,19.15,VALID,135,VALID,1.1335,
2003-04-09, 02:20:00,VALID,916.633,VALID,0,VALID,99.5196,VALID,-0.0339617,VALID,19.1532,VALID,138,VALID,1.10133,
2003-04-09, 02:21:00,VALID,916.607,VALID,0,VALID,99.5196,VALID,0,VALID,19.1398,VALID,142,VALID,1.37565,
2003-04-09, 02:22:00,VALID,916.596,VALID,0,VALID,99.5272,VALID,0.0169808,VALID,19.1368,VALID,141,VALID,1.21007,
2003-04-09, 02:23:00,VALID,916.574,VALID,0,VALID,99.5336,VALID,0.0169808,VALID,19.1329,VALID,146,VALID,1.37713,
2003-04-09, 02:24:00,VALID,916.559,VALID,0,VALID,99.5374,VALID,0,VALID,19.1366,VALID,149,VALID,1.45503,
2003-04-09, 02:25:00,VALID,916.566,VALID,0,VALID,99.5476,VALID,0,VALID,19.1433,VALID,146,VALID,1.20634,
2003-04-09, 02:26:00,VALID,916.562,VALID,0,VALID,99.5374,VALID,0,VALID,19.1532,VALID,143,VALID,1.46283,
2003-04-09, 02:27:00,VALID,916.54,VALID,0,VALID,99.5285,VALID,0.0169808,VALID,19.1433,VALID,141,VALID,1.07335,
2003-04-09, 02:28:00,VALID,916.528,VALID,0,VALID,99.531,VALID,0,VALID,19.1333,VALID,139,VALID,1.13498,
2003-04-09, 02:29:00,VALID,916.509,VALID,0,VALID,99.5387,VALID,0,VALID,19.1336,VALID,144,VALID,1.14039,
2003-04-09, 02:30:00,VALID,916.495,VALID,0,VALID,99.5361,VALID,0,VALID,19.1306,VALID,129,VALID,1.43307,
2003-04-09, 02:31:00,VALID,916.492,VALID,0,VALID,99.5399,VALID,0.0169808,VALID,19.1301,VALID,107,VALID,1.23254,
2003-04-09, 02:32:00,VALID,916.487,VALID,0,VALID,99.5234,VALID,0,VALID,19.1433,VALID,108,VALID,1.15743,
2003-04-09, 02:33:00,VALID,916.496,VALID,0,VALID,99.4967,VALID,0.0169808,VALID,19.1629,VALID,119,VALID,0.912109,
2003-04-09, 02:34:00,VALID,916.465,VALID,0,VALID,99.4547,VALID,0,VALID,19.1495,VALID,127,VALID,0.81684,
2003-04-09, 02:35:00,VALID,916.439,VALID,0,VALID,99.4102,VALID,0,VALID,19.1465,VALID,134,VALID,1.05848,
2003-04-09, 02:36:00,VALID,916.429,VALID,0,VALID,99.3924,VALID,0,VALID,19.1209,VALID,142,VALID,0.780617,
2003-04-09, 02:37:00,VALID,916.421,VALID,0,VALID,99.3734,VALID,-0.0339617,VALID,19.1045,VALID,127,VALID,1.1296,
2003-04-09, 02:38:00,VALID,916.424,VALID,0,VALID,99.3505,VALID,0.0169808,VALID,19.1047,VALID,112,VALID,0.816051,
2003-04-09, 02:39:00,VALID,916.409,VALID,0,VALID,99.3568,VALID,0.0169808,VALID,19.0784,VALID,119,VALID,0.751953,
2003-04-09, 02:40:00,VALID,916.431,VALID,0,VALID,99.3734,VALID,0.0169808,VALID,19.0722,VALID,54,VALID,0.384766,
2003-04-09, 02:41:00,VALID,916.418,VALID,0,VALID,99.3899,VALID,0.0339617,VALID,19.059,VALID,31,VALID,0.225379,
2003-04-09, 02:42:00,VALID,916.416,VALID,0,VALID,99.3975,VALID,0,VALID,19.0595,VALID,103,VALID,0.253378,
2003-04-09, 02:43:00,VALID,916.407,VALID,0,VALID,99.4128,VALID,0,VALID,19.0401,VALID,103,VALID,0.000919118,
2003-04-09, 02:44:00,VALID,916.406,VALID,0,VALID,99.4395,VALID,0.0169808,VALID,19.0466,VALID,103,VALID,0,
2003-04-09, 02:45:00,VALID,916.391,VALID,0,VALID,99.4331,VALID,0.0339617,VALID,19.0299,VALID,103,VALID,0.0238715,
2003-04-09, 02:46:00,VALID,916.381,VALID,0,VALID,99.4408,VALID,0,VALID,19.0272,VALID,103,VALID,0,
2003-04-09, 02:47:00,VALID,916.352,VALID,0,VALID,99.4331,VALID,0,VALID,19.0145,VALID,55,VALID,0.153883,
2003-04-09, 02:48:00,VALID,916.348,VALID,0,VALID,99.4395,VALID,0,VALID,19.0076,VALID,4,VALID,0.463049,
2003-04-09, 02:49:00,VALID,916.343,VALID,0,VALID,99.47,VALID,0.0169808,VALID,18.9819,VALID,3,VALID,0.195542,
2003-04-09, 02:50:00,VALID,916.327,VALID,0,VALID,99.5107,VALID,0,VALID,18.9785,VALID,3,VALID,0.225142,
2003-04-09, 02:51:00,VALID,916.317,VALID,0,VALID,99.5387,VALID,0.0169808,VALID,18.972,VALID,3,VALID,0,
2003-04-09, 02:52:00,VALID,916.294,VALID,0,VALID,99.5603,VALID,0.0169808,VALID,18.9822,VALID,3,VALID,0.0193142,
2003-04-09, 02:53:00,VALID,916.277,VALID,0,VALID,99.5743,VALID,0.0169808,VALID,18.9752,VALID,3,VALID,0.0558712,
2003-04-09, 02:54:00,VALID,916.28,VALID,0,VALID,99.5921,VALID,0.0169808,VALID,18.9658,VALID,3,VALID,0.107686,
2003-04-09, 02:55:00,VALID,916.27,VALID,0,VALID,99.6061,VALID,0.0169808,VALID,18.9593,VALID,3,VALID,0.0415901,
2003-04-09, 02:56:00,VALID,916.262,VALID,0,VALID,99.6302,VALID,0,VALID,18.9526,VALID,3,VALID,0,
2003-04-09, 02:57:00,VALID,916.242,VALID,0,VALID,99.6506,VALID,0.0169808,VALID,18.9591,VALID,3,VALID,0,
2003-04-09, 02:58:00,VALID,916.225,VALID,0,VALID,99.6569,VALID,0.0169808,VALID,18.9499,VALID,3,VALID,0.00130208,
2003-04-09, 02:59:00,VALID,916.187,VALID,0,VALID,99.6709,VALID,0.0339617,VALID,18.9268,VALID,43,VALID,0.694839,
2003-04-09, 03:00:00,VALID,916.197,VALID,0,VALID,99.648,VALID,0,VALID,18.8949,VALID,47,VALID,0.990287,
2003-04-09, 03:01:00,VALID,916.195,VALID,0,VALID,99.6328,VALID,0.0339617,VALID,18.8457,VALID,38,VALID,1.22472,
2003-04-09, 03:02:00,VALID,916.216,VALID,0,VALID,99.6595,VALID,0.0169808,VALID,18.8328,VALID,42,VALID,1.04759,
2003-04-09, 03:03:00,VALID,916.235,VALID,0,VALID,99.6633,VALID,0.0169808,VALID,18.7975,VALID,25,VALID,1.28016,
2003-04-09, 03:04:00,VALID,916.243,VALID,0,VALID,99.6722,VALID,0,VALID,18.7649,VALID,23,VALID,1.37782,
2003-04-09, 03:05:00,VALID,916.242,VALID,0,VALID,99.6976,VALID,0,VALID,18.7587,VALID,23,VALID,1.16027,
2003-04-09, 03:06:00,VALID,916.253,VALID,0,VALID,99.7358,VALID,0,VALID,18.7716,VALID,20,VALID,0.953547,
2003-04-09, 03:07:00,VALID,916.269,VALID,0,VALID,99.751,VALID,0,VALID,18.749,VALID,20,VALID,0.844899,
2003-04-09, 03:08:00,VALID,916.264,VALID,0,VALID,99.7841,VALID,0,VALID,18.7493,VALID,23,VALID,0.927794,
2003-04-09, 03:09:00,VALID,916.274,VALID,0,VALID,99.8057,VALID,0,VALID,18.7493,VALID,24,VALID,0.932075,
2003-04-09, 03:10:00,VALID,916.265,VALID,0,VALID,99.8082,VALID,0,VALID,18.746,VALID,24,VALID,0.796007,
2003-04-09, 03:11:00,VALID,916.249,VALID,0,VALID,99.8286,VALID,0.0169808,VALID,18.7331,VALID,23,VALID,0.640388,
2003-04-09, 03:12:00,VALID,916.243,VALID,0,VALID,99.8324,VALID,0,VALID,18.7301,VALID,34,VALID,0.603674,
2003-04-09, 03:13:00,VALID,916.216,VALID,0,VALID,99.8426,VALID,0.0169808,VALID,18.7199,VALID,45,VALID,0.320772,
2003-04-09, 03:14:00,VALID,916.224,VALID,0,VALID,99.8616,VALID,0.0169808,VALID,18.7495,VALID,73,VALID,0.569366,
2003-04-09, 03:15:00,VALID,916.236,VALID,0,VALID,99.8718,VALID,-0.0169808,VALID,18.759,VALID,97,VALID,0.606771,
2003-04-09, 03:16:00,VALID,916.226,VALID,0,VALID,99.8947,VALID,0,VALID,18.7853,VALID,108,VALID,0.710286,
2003-04-09, 03:17:00,VALID,916.246,VALID,0,VALID,99.91,VALID,0,VALID,18.8109,VALID,113,VALID,0.703835,
2003-04-09, 03:18:00,VALID,916.266,VALID,0,VALID,99.9252,VALID,0,VALID,18.8308,VALID,133,VALID,0.585726,
2003-04-09, 03:19:00,VALID,916.292,VALID,0,VALID,99.9112,VALID,0,VALID,18.8109,VALID,139,VALID,0.452665,
2003-04-09, 03:20:00,VALID,916.304,VALID,0,VALID,99.9112,VALID,-0.0169808,VALID,18.792,VALID,144,VALID,0.682055,
2003-04-09, 03:21:00,VALID,916.332,VALID,0,VALID,99.9011,VALID,-0.0339617,VALID,18.7629,VALID,143,VALID,0.894314,
2003-04-09, 03:22:00,VALID,916.316,VALID,0,VALID,99.8985,VALID,0,VALID,18.7239,VALID,146,VALID,1.10677,
2003-04-09, 03:23:00,VALID,916.338,VALID,0,VALID,99.9087,VALID,-0.0339617,VALID,18.7274,VALID,141,VALID,1.00545,
2003-04-09, 03:24:00,VALID,916.334,VALID,0,VALID,99.9087,VALID,-0.0509425,VALID,18.7338,VALID,141,VALID,0.974873,
2003-04-09, 03:25:00,VALID,916.334,VALID,0,VALID,99.9201,VALID,-0.0169808,VALID,18.7333,VALID,143,VALID,0.884421,
2003-04-09, 03:26:00,VALID,916.315,VALID,0,VALID,99.9214,VALID,-0.0169808,VALID,18.747,VALID,140,VALID,0.912169,
2003-04-09, 03:27:00,VALID,916.323,VALID,0,VALID,99.9303,VALID,0,VALID,18.74,VALID,143,VALID,1.04839,
2003-04-09, 03:28:00,VALID,916.319,VALID,0,VALID,99.9354,VALID,0,VALID,18.7306,VALID,138,VALID,1.051,
2003-04-09, 03:29:00,VALID,916.314,VALID,0,VALID,99.9405,VALID,0,VALID,18.7306,VALID,137,VALID,0.751184,
2003-04-09, 03:30:00,VALID,916.325,VALID,0,VALID,99.9456,VALID,0,VALID,18.7232,VALID,112,VALID,0.478252,
2003-04-09, 03:31:00,VALID,916.321,VALID,0,VALID,99.9443,VALID,-0.0169808,VALID,18.7308,VALID,108,VALID,0.639706,
2003-04-09, 03:32:00,VALID,916.321,VALID,0,VALID,99.9583,VALID,0,VALID,18.7303,VALID,93,VALID,0.658381,
2003-04-09, 03:33:00,VALID,916.329,VALID,0.2,VALID,99.943,VALID,0,VALID,18.6856,VALID,87,VALID,0.70421,
2003-04-09, 03:34:00,VALID,916.355,VALID,0,VALID,99.9557,VALID,0,VALID,18.6597,VALID,89,VALID,0.731988,